AirNav   TITAN Aviation Fuels
 
 1293 users online  

08M Carthage-Leake County Airport
Carthage, Mississippi, USA

GOING TO CARTHAGE?


FAA INFORMATION EFFECTIVE 16 JUNE 2022

Location

FAA Identifier: 08M
Lat/Long: 32-45-41.7000N 089-31-49.4000W
32-45.695000N 089-31.823333W
32.7615833,-89.5303889
(estimated)
Elevation: 457 ft. / 139 m (estimated)
Variation: 02E (1985)
From city: 2 miles N of CARTHAGE, MS
Time zone: UTC -5 (UTC -6 during Standard Time)
Zip code: 39051

Airport Operations

Airport use: Open to the public
Activation date: 02/1964
Control tower: no
ARTCC: MEMPHIS CENTER
FSS: GREENWOOD FLIGHT SERVICE STATION
NOTAMs facility: GWO (NOTAM-D service available)
Attendance: UNATNDD
Wind indicator: lighted
Segmented circle: yes
Lights: DUSK-2200. AFT 2200 ACTVT MIRL RWY 17/35 - CTAF.
Beacon: white-green (lighted land airport)
Operates sunset to sunrise.

Airport Communications

CTAF: 122.9

Airport Services

Fuel available: 100LL
100LL:FUEL AVAIL 24 HRS WITH CREDIT CARD.
Parking: tiedowns
Airframe service: MINOR
Powerplant service: MINOR
Bottled oxygen: NONE
Bulk oxygen: NONE

Runway Information

Runway 17/35

Dimensions: 3000 x 75 ft. / 914 x 23 m
Surface: asphalt, in fair condition
Weight bearing capacity: 
Single wheel: 20.0
Runway edge lights: medium intensity
RUNWAY 17  RUNWAY 35
Latitude: 32-45.941613N32-45.448365N
Longitude: 089-31.845990W089-31.799015W
Elevation: 457.0 ft.445.0 ft.
Traffic pattern: leftleft
Runway heading: 173 magnetic, 175 true353 magnetic, 355 true
Markings: nonprecision, in poor conditionnonprecision, in poor condition
Touchdown point: yes, no lightsyes, no lights
Obstructions: 24 ft. trees, 930 ft. from runway, 200 ft. left of centerline, 30:1 slope to clear39 ft. tree, 1125 ft. from runway, 300 ft. right of centerline, 23:1 slope to clear

Airport Ownership and Management from official FAA records

Ownership: Publicly-owned
Owner: CITY OF CARTHAGE
212 MAIN ST
CARTHAGE, MS 39051
Phone 601-267-8322
MARY ANN WILDER-VIVIANS, MAYOR.
Manager: TONY GORDON
212 MAIN ST
CARTHAGE, MS 39051
Phone 601-267-9327
CHAIRMAN OF ARPT ADZY COMMITTEE.

Airport Operational Statistics

Aircraft based on the field: 16
Single engine airplanes: 13
Multi engine airplanes: 3
    
Aircraft operations: avg 88/week *
61% local general aviation
39% transient general aviation
* for 12-month period ending 10 March 2022

Additional Remarks

FOR CD CTC MEMPHIS ARTCC AT 901-368-8453/8449.

Instrument Procedures

There are no published instrument procedures at 08M.

Some nearby airports with instrument procedures:

KOSX - Kosciusko-Attala County Airport (20 nm N)
KMPE - Philadelphia Municipal Airport (21 nm E)
KLMS - Louisville/Winston County Airport (33 nm NE)
19M - C A Moore Airport (33 nm NW)
KMBO - Bruce Campbell Field Airport (35 nm SW)
 
Loc | Ops | Rwys | IFR | FBO | Links
Com | Nav | Svcs | Stats | Notes
Area around 08M (Carthage-Leake County Airport)
 
Road maps at: MapQuest Bing Google
 
Aerial photo
WARNING: Photo may not be current or correct
Aerial photo of 08M (Carthage-Leake County Airport)
Do you have a better or more recent aerial photo of Carthage-Leake County Airport that you would like to share? If so, please send us your photo.

 
Sectional chart

 
Airport distance calculator
Flying to Carthage-Leake County Airport? Find the distance to fly.

From to 08M

Sunrise and sunset
Times for 28-Jun-2022
 Local
(UTC-5)
 Zulu
(UTC)
Morning civil twilight05:2510:25
Sunrise05:5410:54
Sunset20:0901:09
Evening civil twilight20:3801:38

Current date and time
Zulu (UTC)  28-Jun-2022 22:30:15
Local (UTC-5)  28-Jun-2022 17:30:15
 
METAR
KMBO 
35nm SW 
282215Z AUTO VRB04KT 10SM FEW036 SCT044 OVC055 28/24 A3005 RMK AO2
KNJW 
35nm E 
282157Z AUTO 01006KT 10SM CLR 30/21 A3010 RMK AO2 SLP106 T03000211 $
KJAN 
39nm SW 
282154Z 08007KT 10SM SCT045 BKN055 BKN070 29/22 A3005 RMK AO2 SLP172 T02890222
KHKS 
43nm SW 
282153Z 11007KT 10SM BKN045 BKN055 31/22 A3006 RMK AO2 SLP170 T03060217
K5A6 
43nm N 
282215Z AUTO 04003KT 10SM CLR 32/17 A3006 RMK AO2 T03150167
KMEI 
47nm SE 
282158Z 35008KT 10SM CLR 31/22 A3005 RMK AO2 SLP171 T03110222
TAF
KJAN 
39nm SW 
281727Z 2818/2918 03006KT P6SM SCT070 SCT150 BKN250 FM282000 03006KT P6SM VCTS SCT050CB SCT100 BKN250 FM290000 01003KT P6SM BKN250
KHKS 
43nm SW 
281727Z 2818/2918 03006KT P6SM SCT070 SCT150 BKN250 FM282000 03006KT P6SM VCTS SCT050CB SCT100 BKN250 FM290000 01003KT P6SM BKN250
KMEI 
47nm SE 
281727Z 2818/2918 03006KT P6SM SCT070 SCT150 BKN250 FM282000 03006KT P6SM VCTS SCT050CB SCT100 BKN250 FM290000 01003KT P6SM BKN250
NOTAMs
Click for the latest NOTAMs
NOTAMs are issued by the DoD/FAA and will open in a separate window not controlled by AirNav.

 

 
 

FBO, Fuel Providers, and Aircraft Ground Support

  
 Business Name 
 
 Contact 
 
 Services / Description 
 
Fuel Prices
 
Comments
  
Carthage-Leake County Airport 601-267-9327
no information available

If you are affiliated with Carthage-Leake County Airport and would like to show here your services, contact info, web link, logo, and more, click here
100LL
AS $6.00 
 Updated 16-Jun-2022
 
   write
AS=Assisted/Self Service
Update Fuel Prices
 

Would you like to see your business listed on this page?

 If your business provides an interesting product or service to pilots, flight crews, aircraft, or users of the Carthage-Leake County Airport, you should consider listing it here.  To start the listing process, click on the button below
 
Add a business
 

Other Pages about Carthage-Leake County Airport

Update a link
 
Copyright © AirNav, LLC. All rights reserved. Privacy Policy  Contact